This is the latest recevied weather packets stored in our database for station/object KE8AFF-13. If no packets are shown the sender has not sent any weather packets the latest 10 day(s).
| Time | Temp. | Humidity | Pressure | Rain* | Wind** | Luminosity | Snow |
|---|---|---|---|---|---|---|---|
| 1777210629 | 7.78° C | 96% | 1019.3 hPa | 0 mm | - | 83 W/m² | - |
| 1777210326 | 7.78° C | 96% | 1019.1 hPa | 0 mm | - | 82 W/m² | - |
| 1777210023 | 7.78° C | 96% | 1019.3 hPa | 0 mm | - | 83 W/m² | - |
| 1777209723 | 7.78° C | 96% | 1019 hPa | 0 mm | - | 72 W/m² | - |
| 1777209418 | 7.22° C | 97% | 1019.3 hPa | 0 mm | - | 69 W/m² | - |
| 1777209115 | 7.22° C | 97% | 1019.2 hPa | 0 mm | - | 67 W/m² | - |
| 1777208810 | 7.22° C | 97% | 1019.2 hPa | 0 mm | - | 66 W/m² | - |
| 1777208508 | 7.22° C | 97% | 1019.2 hPa | 0 mm | - | 52 W/m² | - |
| 1777208204 | 7.22° C | 97% | 1019.2 hPa | 0 mm | - | 54 W/m² | - |
| 1777207900 | 7.22° C | 97% | 1019 hPa | 0 mm | - | 57 W/m² | - |
| 1777207594 | 7.22° C | 97% | 1019.1 hPa | 0 mm | - | 51 W/m² | - |
| 1777207290 | 7.22° C | 97% | 1019.2 hPa | 0 mm | - | 45 W/m² | - |
| 1777206984 | 7.22° C | 97% | 1019.2 hPa | 0 mm | - | 43 W/m² | - |
| 1777206681 | 7.22° C | 97% | 1018.9 hPa | 0 mm | - | 32 W/m² | - |
| 1777206375 | 7.22° C | 97% | 1019.3 hPa | 0 mm | - | 35 W/m² | - |
| 1777206071 | 7.22° C | 97% | 1019.1 hPa | 0 mm | - | 26 W/m² | - |
| 1777205767 | 7.22° C | 97% | 1019.1 hPa | 0 mm | - | 22 W/m² | - |
| 1777205464 | 7.22° C | 97% | 1019.2 hPa | 0 mm | - | 27 W/m² | - |
| 1777205160 | 7.22° C | 97% | 1019.4 hPa | 0 mm | - | 23 W/m² | - |
| 1777204856 | 7.22° C | 97% | 1019 hPa | 0 mm | - | 19 W/m² | - |
| 1777204551 | 7.22° C | 97% | 1019.2 hPa | 0 mm | - | 17 W/m² | - |
* Rain latest hour (hover to see other rain measurements)
** Current wind speed in m/s (hover to see current wind gust speed)